Time,TemperatureF,DewpointF,PressureIn,WindDirection,WindDirectionDegrees,WindSpeedMPH,WindSpeedGustMPH,Humidity,HourlyPrecipIn,Conditions,Clouds,dailyrainin,SolarRadiationWatts/m^2,SoftwareType,DateUTC
2013-03-20 00:12:00,45.0,27.0,-100.00,WSW,252,2.0,8.0,48,0.00,,,0.00,0.000000,,2013-03-20 07:12:00,
2013-03-20 00:22:00,45.0,27.0,-100.00,WSW,252,2.0,8.0,48,0.00,,,0.00,0.000000,,2013-03-20 07:22:00,
2013-03-20 00:32:00,45.0,27.0,-100.00,WSW,252,2.0,8.0,48,0.00,,,0.00,0.000000,,2013-03-20 07:32:00,
2013-03-20 00:42:00,45.0,27.0,-100.00,WSW,252,2.0,8.0,48,0.00,,,0.00,0.000000,,2013-03-20 07:42:00,
2013-03-20 01:22:00,40.0,27.0,-100.00,NE,39,0.0,3.0,59,0.00,,,-99.99,0.000000,,2013-03-20 08:22:00,
2013-03-20 01:42:00,40.0,27.0,-100.00,NE,39,0.0,3.0,59,0.00,,,-99.99,0.000000,,2013-03-20 08:42:00,
2013-03-20 01:51:00,40.0,27.0,-100.00,NE,39,0.0,3.0,59,0.00,,,-99.99,0.000000,,2013-03-20 08:51:00,
2013-03-20 02:12:00,38.0,28.0,-100.00,ESE,113,1.0,3.0,67,0.00,,,0.00,0.000000,,2013-03-20 09:12:00,
2013-03-20 03:12:00,40.0,29.0,-100.00,East,79,0.0,8.0,64,-99.99,,,0.00,0.000000,,2013-03-20 10:12:00,
2013-03-20 03:52:00,43.0,29.0,-100.00,East,90,1.0,4.0,58,-99.99,,,0.00,0.000000,,2013-03-20 10:52:00,
2013-03-20 04:22:00,43.0,29.0,-100.00,East,90,1.0,4.0,58,-99.99,,,0.00,0.000000,,2013-03-20 11:22:00,
2013-03-20 04:42:00,43.0,29.0,-100.00,East,90,1.0,4.0,58,-99.99,,,0.00,0.000000,,2013-03-20 11:42:00,
2013-03-20 04:52:00,43.0,29.0,-100.00,NW,318,0.0,2.0,57,0.00,,,0.00,0.000000,,2013-03-20 11:52:00,
2013-03-20 05:22:00,43.0,29.0,-100.00,NW,318,0.0,2.0,57,0.00,,,0.00,0.000000,,2013-03-20 12:22:00,
2013-03-20 05:42:00,43.0,29.0,-100.00,NW,318,0.0,2.0,57,0.00,,,0.00,0.000000,,2013-03-20 12:42:00,
2013-03-20 05:52:00,45.0,29.0,-100.00,SSE,163,3.0,6.0,54,0.00,,,0.00,0.000000,,2013-03-20 12:52:00,
2013-03-20 06:22:00,45.0,29.0,-100.00,SSE,163,3.0,6.0,54,0.00,,,0.00,0.000000,,2013-03-20 13:22:00,
2013-03-20 06:32:00,45.0,29.0,-100.00,SSE,163,3.0,6.0,54,0.00,,,0.00,0.000000,,2013-03-20 13:32:00,
2013-03-20 06:42:00,45.0,29.0,-100.00,SSE,163,3.0,6.0,54,0.00,,,0.00,0.000000,,2013-03-20 13:42:00,
2013-03-20 07:12:00,47.0,28.0,-100.00,South,173,3.0,5.0,47,0.00,,,0.00,0.000000,,2013-03-20 14:12:00,
2013-03-20 07:22:00,47.0,28.0,-100.00,South,173,3.0,5.0,47,0.00,,,0.00,0.000000,,2013-03-20 14:22:00,
2013-03-20 07:33:00,47.0,28.0,-100.00,South,173,3.0,5.0,47,0.00,,,0.00,0.000000,,2013-03-20 14:33:00,
2013-03-20 07:42:00,47.0,28.0,-100.00,South,173,3.0,5.0,47,0.00,,,0.00,0.000000,,2013-03-20 14:42:00,
2013-03-20 07:51:00,47.0,28.0,-100.00,South,173,3.0,5.0,47,0.00,,,0.00,0.000000,,2013-03-20 14:51:00,
2013-03-20 07:52:00,50.0,31.0,-100.00,South,186,3.0,7.0,48,0.00,,,0.00,33.000000,,2013-03-20 14:52:00,
2013-03-20 08:12:00,50.0,31.0,-100.00,South,186,3.0,7.0,48,0.00,,,0.00,33.000000,,2013-03-20 15:12:00,
2013-03-20 08:22:00,50.0,31.0,-100.00,South,186,3.0,7.0,48,0.00,,,0.00,33.000000,,2013-03-20 15:22:00,
2013-03-20 08:33:00,50.0,31.0,-100.00,South,186,3.0,7.0,48,0.00,,,0.00,33.000000,,2013-03-20 15:33:00,
2013-03-20 08:43:00,50.0,31.0,-100.00,South,186,3.0,7.0,48,0.00,,,0.00,33.000000,,2013-03-20 15:43:00,
2013-03-20 08:52:00,58.0,30.0,-100.00,West,268,4.0,8.0,34,0.00,,,0.00,222.000000,,2013-03-20 15:52:00,
2013-03-20 09:12:00,58.0,30.0,-100.00,West,268,4.0,8.0,34,0.00,,,0.00,222.000000,,2013-03-20 16:12:00,
2013-03-20 09:23:00,58.0,30.0,-100.00,West,268,4.0,8.0,34,0.00,,,0.00,222.000000,,2013-03-20 16:23:00,
2013-03-20 09:32:00,58.0,30.0,-100.00,West,268,4.0,8.0,34,0.00,,,0.00,222.000000,,2013-03-20 16:32:00,
2013-03-20 09:42:00,58.0,30.0,-100.00,West,268,4.0,8.0,34,0.00,,,0.00,222.000000,,2013-03-20 16:42:00,
2013-03-20 09:52:00,57.0,32.0,-100.00,WSW,247,5.0,13.0,38,0.00,,,0.00,353.000000,,2013-03-20 16:52:00,
2013-03-20 10:12:00,57.0,32.0,-100.00,WSW,247,5.0,13.0,38,0.00,,,0.00,353.000000,,2013-03-20 17:12:00,
2013-03-20 10:22:00,57.0,32.0,-100.00,WSW,247,5.0,13.0,38,0.00,,,0.00,353.000000,,2013-03-20 17:22:00,
2013-03-20 10:32:00,57.0,32.0,-100.00,WSW,247,5.0,13.0,38,0.00,,,0.00,353.000000,,2013-03-20 17:32:00,
2013-03-20 10:42:00,57.0,32.0,-100.00,WSW,247,5.0,13.0,38,0.00,,,0.00,353.000000,,2013-03-20 17:42:00,
2013-03-20 10:52:00,63.0,33.0,-100.00,West,276,5.0,15.0,33,0.00,,,0.00,405.000000,,2013-03-20 17:52:00,
2013-03-20 11:12:00,63.0,33.0,-100.00,West,276,5.0,15.0,33,0.00,,,0.00,405.000000,,2013-03-20 18:12:00,
2013-03-20 11:22:00,63.0,33.0,-100.00,West,276,5.0,15.0,33,0.00,,,0.00,405.000000,,2013-03-20 18:22:00,
2013-03-20 11:32:00,63.0,33.0,-100.00,West,276,5.0,15.0,33,0.00,,,0.00,405.000000,,2013-03-20 18:32:00,
2013-03-20 11:42:00,63.0,33.0,-100.00,West,276,5.0,15.0,33,0.00,,,0.00,405.000000,,2013-03-20 18:42:00,
2013-03-20 11:52:00,64.0,33.0,-100.00,West,265,6.0,18.0,31,0.00,,,0.00,869.000000,,2013-03-20 18:52:00,
2013-03-20 12:22:00,64.0,33.0,-100.00,West,265,6.0,18.0,31,0.00,,,0.00,869.000000,,2013-03-20 19:22:00,
2013-03-20 12:32:00,64.0,33.0,-100.00,West,265,6.0,18.0,31,0.00,,,0.00,869.000000,,2013-03-20 19:32:00,
2013-03-20 12:42:00,64.0,33.0,-100.00,West,265,6.0,18.0,31,0.00,,,0.00,869.000000,,2013-03-20 19:42:00,
2013-03-20 12:52:00,65.0,28.0,-100.00,WSW,241,5.0,18.0,25,0.00,,,0.00,921.000000,,2013-03-20 19:52:00,
2013-03-20 13:22:00,65.0,28.0,-100.00,WSW,241,5.0,18.0,25,0.00,,,0.00,921.000000,,2013-03-20 20:22:00,
2013-03-20 13:32:00,65.0,28.0,-100.00,WSW,241,5.0,18.0,25,0.00,,,0.00,921.000000,,2013-03-20 20:32:00,
2013-03-20 13:42:00,65.0,28.0,-100.00,WSW,241,5.0,18.0,25,0.00,,,0.00,921.000000,,2013-03-20 20:42:00,
2013-03-20 13:52:00,64.0,27.0,-100.00,West,265,4.0,20.0,25,0.00,,,0.00,990.000000,,2013-03-20 20:52:00,
2013-03-20 14:12:00,64.0,27.0,-100.00,West,265,4.0,20.0,25,0.00,,,0.00,990.000000,,2013-03-20 21:12:00,
2013-03-20 14:22:00,64.0,27.0,-100.00,West,265,4.0,20.0,25,0.00,,,0.00,990.000000,,2013-03-20 21:22:00,
2013-03-20 14:33:00,64.0,27.0,-100.00,West,265,4.0,20.0,25,0.00,,,0.00,990.000000,,2013-03-20 21:33:00,
2013-03-20 14:42:00,64.0,27.0,-100.00,West,265,4.0,20.0,25,0.00,,,0.00,990.000000,,2013-03-20 21:42:00,
2013-03-20 14:52:00,59.0,33.0,-100.00,West,259,7.0,20.0,38,-99.99,,,0.00,702.000000,,2013-03-20 21:52:00,
2013-03-20 15:23:00,59.0,33.0,-100.00,West,259,7.0,20.0,38,-99.99,,,0.00,702.000000,,2013-03-20 22:23:00,
2013-03-20 15:32:00,59.0,33.0,-100.00,West,259,7.0,20.0,38,-99.99,,,0.00,702.000000,,2013-03-20 22:32:00,
2013-03-20 15:42:00,59.0,33.0,-100.00,West,259,7.0,20.0,38,-99.99,,,0.00,702.000000,,2013-03-20 22:42:00,
2013-03-20 15:52:00,59.0,33.0,-100.00,West,267,7.0,24.0,38,0.00,,,0.00,659.000000,,2013-03-20 22:52:00,
2013-03-20 16:12:00,59.0,33.0,-100.00,West,267,7.0,24.0,38,0.00,,,0.00,659.000000,,2013-03-20 23:12:00,
2013-03-20 16:22:00,59.0,33.0,-100.00,West,267,7.0,24.0,38,0.00,,,0.00,659.000000,,2013-03-20 23:22:00,
2013-03-20 16:32:00,59.0,33.0,-100.00,West,267,7.0,24.0,38,0.00,,,0.00,659.000000,,2013-03-20 23:32:00,
2013-03-20 16:42:00,59.0,33.0,-100.00,West,267,7.0,24.0,38,0.00,,,0.00,659.000000,,2013-03-20 23:42:00,
2013-03-20 16:52:00,56.0,27.0,-100.00,West,262,6.0,16.0,33,0.00,,,0.00,455.000000,,2013-03-20 23:52:00,
2013-03-20 17:12:00,56.0,27.0,-100.00,West,262,6.0,16.0,33,0.00,,,0.00,455.000000,,2013-03-21 00:12:00,
2013-03-20 17:22:00,56.0,27.0,-100.00,West,262,6.0,16.0,33,0.00,,,0.00,455.000000,,2013-03-21 00:22:00,
2013-03-20 17:32:00,56.0,27.0,-100.00,West,262,6.0,16.0,33,0.00,,,0.00,455.000000,,2013-03-21 00:32:00,
2013-03-20 17:42:00,56.0,27.0,-100.00,West,262,6.0,16.0,33,0.00,,,0.00,455.000000,,2013-03-21 00:42:00,
2013-03-20 17:52:00,52.0,25.0,-100.00,WNW,289,9.0,23.0,34,0.00,,,0.00,190.000000,,2013-03-21 00:52:00,
2013-03-20 18:12:00,52.0,25.0,-100.00,WNW,289,9.0,23.0,34,0.00,,,0.00,190.000000,,2013-03-21 01:12:00,
2013-03-20 18:22:00,52.0,25.0,-100.00,WNW,289,9.0,23.0,34,0.00,,,0.00,190.000000,,2013-03-21 01:22:00,
2013-03-20 18:32:00,52.0,25.0,-100.00,WNW,289,9.0,23.0,34,0.00,,,0.00,190.000000,,2013-03-21 01:32:00,
2013-03-20 18:42:00,52.0,25.0,-100.00,WNW,289,9.0,23.0,34,0.00,,,0.00,190.000000,,2013-03-21 01:42:00,
2013-03-20 19:22:00,48.0,29.0,-100.00,West,274,6.0,19.0,48,0.00,,,0.00,34.000000,,2013-03-21 02:22:00,
2013-03-20 19:32:00,48.0,29.0,-100.00,West,274,6.0,19.0,48,0.00,,,0.00,34.000000,,2013-03-21 02:32:00,
2013-03-20 19:42:00,48.0,29.0,-100.00,West,274,6.0,19.0,48,0.00,,,0.00,34.000000,,2013-03-21 02:42:00,
2013-03-20 19:51:00,48.0,29.0,-100.00,West,274,6.0,19.0,48,0.00,,,0.00,34.000000,,2013-03-21 02:51:00,
2013-03-20 19:52:00,46.0,19.0,-100.00,West,277,5.0,18.0,34,0.00,,,0.00,1.000000,,2013-03-21 02:52:00,
2013-03-20 20:12:00,46.0,19.0,-100.00,West,277,5.0,18.0,34,0.00,,,0.00,1.000000,,2013-03-21 03:12:00,
2013-03-20 20:22:00,46.0,19.0,-100.00,West,277,5.0,18.0,34,0.00,,,0.00,1.000000,,2013-03-21 03:22:00,
2013-03-20 20:32:00,46.0,19.0,-100.00,West,277,5.0,18.0,34,0.00,,,0.00,1.000000,,2013-03-21 03:32:00,
2013-03-20 20:43:00,46.0,19.0,-100.00,West,277,5.0,18.0,34,0.00,,,0.00,1.000000,,2013-03-21 03:43:00,
2013-03-20 20:52:00,45.0,17.0,-100.00,West,276,4.0,14.0,32,0.00,,,0.00,0.000000,,2013-03-21 03:52:00,
2013-03-20 21:22:00,45.0,17.0,-100.00,West,276,4.0,14.0,32,0.00,,,0.00,0.000000,,2013-03-21 04:22:00,
2013-03-20 21:32:00,45.0,17.0,-100.00,West,276,4.0,14.0,32,0.00,,,0.00,0.000000,,2013-03-21 04:32:00,
2013-03-20 21:43:00,45.0,17.0,-100.00,West,276,4.0,14.0,32,0.00,,,0.00,0.000000,,2013-03-21 04:43:00,
2013-03-20 22:22:00,46.0,19.0,-100.00,WNW,292,6.0,14.0,34,0.00,,,0.00,0.000000,,2013-03-21 05:22:00,
2013-03-20 22:32:00,46.0,19.0,-100.00,WNW,292,6.0,14.0,34,0.00,,,0.00,0.000000,,2013-03-21 05:32:00,
2013-03-20 22:43:00,46.0,19.0,-100.00,WNW,292,6.0,14.0,34,0.00,,,0.00,0.000000,,2013-03-21 05:43:00,
2013-03-20 22:51:00,46.0,19.0,-100.00,WNW,292,6.0,14.0,34,0.00,,,0.00,0.000000,,2013-03-21 05:51:00,
2013-03-20 22:52:00,44.0,23.0,-100.00,SW,215,3.0,12.0,44,0.00,,,0.00,0.000000,,2013-03-21 05:52:00,
2013-03-20 23:22:00,44.0,23.0,-100.00,SW,215,3.0,12.0,44,0.00,,,0.00,0.000000,,2013-03-21 06:22:00,
2013-03-20 23:32:00,44.0,23.0,-100.00,SW,215,3.0,12.0,44,0.00,,,0.00,0.000000,,2013-03-21 06:32:00,
2013-03-20 23:42:00,44.0,23.0,-100.00,SW,215,3.0,12.0,44,0.00,,,0.00,0.000000,,2013-03-21 06:42:00,
2013-03-20 23:52:00,46.0,26.0,-100.00,WNW,288,6.0,14.0,46,0.00,,,0.00,0.000000,,2013-03-21 06:52:00,